Newark, NJ

6:41 PM EST on November 20, 2017 (GMT -0500)
Newark International

Weather History for KEWR - January, 2013

Change the Weather History Date:

Friday, January 18, 2013

  Actual Average Record
Temperature  
Mean Temperature 32 °F 31 °F  
Max Temperature 36 °F 38 °F 66 °F (1990)
Min Temperature 27 °F 24 °F -7 °F (1982)
Degree Days  
Heating Degree Days 33 34  
Month to date heating degree days 472 602  
Since 1 July heating degree days 2081 2352  
Cooling Degree Days 0 0  
Month to date cooling degree days 0 0  
Year to date cooling degree days 0 0  
Moisture  
Dew Point 10 °F    
Average Humidity 49    
Maximum Humidity 70    
Minimum Humidity 28    
Precipitation  
Precipitation T in 0.12 in 1.84 in (2015)
Month to date precipitation 1.43 2.13  
Year to date precipitation 1.43 2.13  
Snow  
Snow T in 0.20 in 2.90 in (1984)
Month to date snowfall 0.3 4.5  
Since 1 July snowfall 8.8 10.3  
Snow Depth 0.00 in    
Sea Level Pressure  
Sea Level Pressure 30.34 in    
Wind  
Wind Speed 11 mph (NW)    
Max Wind Speed 25 mph    
Max Gust Speed 32 mph    
Visibility 10 miles    
Events Snow    
T = Trace of Precipitation, MM = Missing Value Source: NWS Daily Summary

Daily Weather History Graph

Daily Weather History Graph

Search for Another Location

Airport or City:

Trip Planner

Search our weather history database for the weather conditions in past years. The results will help you decide how hot, cold, wet, or windy it might be!

Date:

Astronomy

Jan. 18, 2013 Rise Set
Actual Time 7:17 AM EST 4:57 PM EST
Civil Twilight 6:47 AM EST 5:27 PM EST
Nautical Twilight 6:13 AM EST 6:01 PM EST
Astronomical Twilight 5:40 AM EST 6:33 PM EST
Moon 10:51 AM EST (1/18) No Moon Set
Length of Visible Light 10h 40m
Length of Day
9h 40m
Waxing Crescent, 47% of the Moon is Illuminated
Jan 18
Waxing Crescent
Jan 18
First Quarter
Jan 26
Full
Feb 3
Last Quarter
Feb 10
New

Hourly Weather History & Observations

Time (EST) Temp. Windchill Dew Point Humidity Pressure Visibility Wind Dir Wind Speed Gust Speed Precip Events Conditions
12:51 AM 35.1 °F 27.4 °F 23.0 °F 61% 30.03 in 10.0 mi NE 10.4 mph - N/A   Overcast
1:51 AM 33.1 °F 23.9 °F 21.9 °F 64% 30.07 in 10.0 mi NNE 12.7 mph - N/A   Overcast
2:51 AM 30.9 °F 21.2 °F 19.0 °F 61% 30.10 in 10.0 mi North 12.7 mph - N/A   Overcast
3:51 AM 30.0 °F 21.7 °F 17.1 °F 59% 30.10 in 10.0 mi NNE 9.2 mph - N/A   Overcast
4:51 AM 30.0 °F 24.1 °F 17.1 °F 59% 30.14 in 10.0 mi North 5.8 mph - N/A   Scattered Clouds
5:51 AM 30.0 °F 20.0 °F 16.0 °F 56% 30.20 in 10.0 mi NNW 12.7 mph - N/A   Mostly Cloudy
6:51 AM 28.9 °F 18.6 °F 15.1 °F 56% 30.25 in 10.0 mi North 12.7 mph - N/A   Overcast
7:51 AM 28.0 °F 14.3 °F 12.9 °F 53% 30.31 in 10.0 mi NNW 21.9 mph 32.2 mph N/A   Mostly Cloudy
8:51 AM 28.4 °F 16.6 °F 8.6 °F 43% 30.36 in 10.0 mi NNW 16.1 mph 24.2 mph N/A Snow Light Snow
9:51 AM 28.9 °F 17.3 °F 7.0 °F 40% 30.42 in 10.0 mi NW 16.1 mph 26.5 mph 0.00 in   Scattered Clouds
10:51 AM 30.0 °F 19.1 °F 5.0 °F 35% 30.44 in 10.0 mi NNW 15.0 mph - N/A   Scattered Clouds
11:51 AM 30.9 °F 21.2 °F 7.0 °F 37% 30.44 in 10.0 mi WNW 12.7 mph 21.9 mph N/A   Scattered Clouds
12:51 PM 30.9 °F 22.2 °F 5.0 °F 33% 30.43 in 10.0 mi WNW 10.4 mph - N/A   Partly Cloudy
1:51 PM 30.9 °F 19.8 °F 1.9 °F 29% 30.44 in 10.0 mi NNW 16.1 mph 24.2 mph N/A   Partly Cloudy
2:51 PM 30.9 °F 22.8 °F 3.0 °F 31% 30.44 in 10.0 mi NNW 9.2 mph 16.1 mph N/A   Partly Cloudy
3:51 PM 30.9 °F 22.2 °F 1.9 °F 29% 30.44 in 10.0 mi NW 10.4 mph - N/A   Scattered Clouds
4:51 PM 28.9 °F 19.8 °F 1.9 °F 32% 30.46 in 10.0 mi West 10.4 mph - N/A   Partly Cloudy
5:51 PM 28.9 °F 21.1 °F 3.0 °F 33% 30.48 in 10.0 mi WSW 8.1 mph - N/A   Partly Cloudy
6:51 PM 27.0 °F 20.5 °F 5.0 °F 39% 30.49 in 10.0 mi SW 5.8 mph - N/A   Partly Cloudy
7:51 PM 28.0 °F 20.0 °F 8.1 °F 43% 30.49 in 10.0 mi SSW 8.1 mph - N/A   Partly Cloudy
8:51 PM 28.9 °F 21.1 °F 9.0 °F 43% 30.46 in 10.0 mi South 8.1 mph - N/A   Partly Cloudy
9:51 PM 28.0 °F 20.8 °F 10.9 °F 49% 30.47 in 10.0 mi SSW 6.9 mph - N/A   Partly Cloudy
10:51 PM 28.4 °F 20.4 °F 10.4 °F 47% 30.44 in 10.0 mi South 8.1 mph - N/A   Scattered Clouds
11:51 PM 28.9 °F 20.4 °F 12.0 °F 49% 30.40 in 10.0 mi South 9.2 mph - N/A   Scattered Clouds